Showing default

RAPTOR2, 58959

Orbit data source: Space-Track

RAPTOR2, 58959 is a payload satellite owned by SDA (US) in LEO that was launched on Wed, 14 Feb 2024 UTC via an FALCON 9 launch vehicle from the Air Force Eastern Test Range (AFETR). Payload-class satellites include a variety of spacecraft equipped with specific instruments for various scientific and technological missions. These include communications satellites like Starlink; space stations such as the ISS; scientific satellites like the Hubble; Earth observation satellites from companies like Planet Labs, Umbra, and HawkEye 360; GPS; miniature CubeSats for education and research; and military/defense satellites.

Loading next visibility...
Identifier
58959, 2024-028E
Orbit
LEO
Country
Flag of USUS
Related business
Manufacturer
L3Harris SIS
Mission
Operational Defense Early Warn
Bus & Motor
TPL0-L3H, Unknown motor
Mass
~1,000 kg wet, ~1,000 kg dry
Launch date (UTC)
2024-02-14 (3 years ago)
Launch vehicle
FALCON 9
Launch site
Air Force Eastern Test Range (AFETR)
Object type
Payload
Rocket body
Debris
Shape & HBR
Box + 1 Pan, 1.0 m
Radar Cross Section
0.945 m², Large (>1 m²)

Expand to show TLE details & history
Last TLE update: 8 hours ago

TLE from 8 hours ago
0 RAPTOR2
1 58959U 24028E   26258.28823132 -.00000060  00000-0  19958-4 0  9997
2 58959  39.9925 348.9333 0010439  54.8382 305.3342 13.70561664129433
Epoch: 2026-09-15T06:55Z
TLE epoch observation values (Epoch: 2026-09-15T06:55:03.186Z)
Latitude
0.00005°
Longitude
-109.08625°
Altitude
992.59 km
Speed
7.359 km/s
True Right ascension
23h 15m 44s
True Declination
0° 00' 00"
Sunlit
Object was in full shadow at epoch
Visualization orbit readout
Latitude
Unknown
Longitude
Unknown
Altitude
Unknown
Speed
Unknown
Apparent Right ascension
Unknown
Apparent Declination
Unknown
Sunlit
N/A
Visualization observer readout
Local Sidereal Time
07:10:44
Azimuth
Unknown
Elevation
Unknown
Doppler factor
Unknown
Orbital elements
Apogee altitude
1,007.534 km
Perigee altitude
992.13 km
Semi-major axis
7,377.969 km
Eccentricity
0.00104
Inclination
39.9925°
RAAN
348.9333°
Arg. of periapsis
54.8382°
True anomaly
305.23654°
Mean anomaly
305.3342°
Eccentric anomaly
305.28538°
Mean motion
3.42482 °/min
Orbital period
105.11 mins
BSTAR
0.000019958
Loading maneuver chart data...
Computing Atmospheric mass density...
Loading historical data...
Loading historical data...
Loading historical data...
Loading historical data...
Loading historical data...
Loading historical data...
Loading historical data...
Other satellites on launch #28 in the year 2024 (2024-02-14 UTC)

Documentation

Showing up to 5 results
|